| time (UTC) | temp F | wind direction | speed MPH | gust MPH | rain 1hr in | rain 24hr in | rain mn in | humidity % | barometer mb |
| 20260505025941 | 58 | 165 | 6.0 | 14.0 | 0.00 | 0.00 | 0.00 | 15 | 1011.9 |
| 20260505025435 | 58 | 127 | 5.0 | 15.0 | 0.00 | 0.00 | 0.00 | 14 | 1011.9 |
| 20260505024936 | 58 | 203 | 3.0 | 15.0 | 0.00 | 0.00 | 0.00 | 14 | 1011.7 |
| 20260505024437 | 58 | 161 | 3.0 | 10.0 | 0.00 | 0.00 | 0.00 | 14 | 1011.8 |
| 20260505023437 | 58 | 139 | 4.0 | 8.0 | 0.00 | 0.00 | 0.00 | 16 | 1011.8 |
| 20260505022934 | 59 | 182 | 4.0 | 9.0 | 0.00 | 0.00 | 0.00 | 16 | 1011.7 |
| 20260505022435 | 59 | 193 | 5.0 | 14.0 | 0.00 | 0.00 | 0.00 | 16 | 1011.7 |
| 20260505021940 | 59 | 165 | 5.0 | 14.0 | 0.00 | 0.00 | 0.00 | 15 | 1011.7 |
| 20260505021435 | 59 | 210 | 3.0 | 11.0 | 0.00 | 0.00 | 0.00 | 16 | 1011.7 |
| 20260505020934 | 60 | 250 | 2.0 | 10.0 | 0.00 | 0.00 | 0.00 | 16 | 1011.6 |
| 20260505020429 | 60 | 236 | 2.0 | 8.0 | 0.00 | 0.00 | 0.00 | 15 | 1011.7 |
| 20260505015930 | 60 | 163 | 2.0 | 8.0 | 0.00 | 0.00 | 0.00 | 15 | 1011.7 |
| 20260505015425 | 60 | 152 | 3.0 | 9.0 | 0.00 | 0.00 | 0.00 | 15 | 1011.7 |
| 20260505014918 | 60 | 259 | 3.0 | 10.0 | 0.00 | 0.00 | 0.00 | 15 | 1011.8 |
| 20260505014417 | 60 | 103 | 4.0 | 10.0 | 0.00 | 0.00 | 0.00 | 14 | 1011.7 |
| 20260505013916 | 61 | 165 | 5.0 | 11.0 | 0.00 | 0.00 | 0.00 | 13 | 1011.7 |
| 20260505013416 | 61 | 203 | 5.0 | 11.0 | 0.00 | 0.00 | 0.00 | 13 | 1011.6 |
| 20260505012417 | 61 | 229 | 5.0 | 16.0 | 0.00 | 0.00 | 0.00 | 11 | 1011.6 |
| 20260505011916 | 61 | 136 | 5.0 | 16.0 | 0.00 | 0.00 | 0.00 | 11 | 1011.6 |
| 20260505011415 | 62 | 212 | 6.0 | 15.0 | 0.00 | 0.00 | 0.00 | 10 | 1011.7 |
| 20260505010915 | 62 | 167 | 7.0 | 16.0 | 0.00 | 0.00 | 0.00 | 9 | 1011.7 |
| 20260505005912 | 62 | 162 | 7.0 | 17.0 | 0.00 | 0.00 | 0.00 | 8 | 1011.6 |
| 20260505004411 | 64 | 169 | 3.0 | 14.0 | 0.00 | 0.00 | 0.00 | 7 | 1011.7 |
| 20260505003911 | 64 | 290 | 3.0 | 11.0 | 0.00 | 0.00 | 0.00 | 9 | 1011.7 |
| 20260505003413 | 65 | 252 | 4.0 | 12.0 | 0.00 | 0.00 | 0.00 | 10 | 1011.8 |
| 20260505002913 | 65 | 214 | 5.0 | 12.0 | 0.00 | 0.00 | 0.00 | 12 | 1011.6 |
| 20260505002408 | 65 | 124 | 5.0 | 13.0 | 0.00 | 0.00 | 0.00 | 7 | 1011.5 |
| 20260505001908 | 66 | 219 | 4.0 | 13.0 | 0.00 | 0.00 | 0.00 | 6 | 1011.7 |
| 20260505001410 | 66 | 214 | 3.0 | 11.0 | 0.00 | 0.00 | 0.00 | 5 | 1011.5 |
| 20260505000907 | 66 | 229 | 5.0 | 16.0 | 0.00 | 0.00 | 0.00 | 6 | 1011.6 |
| 20260505000406 | 66 | 156 | 4.0 | 16.0 | 0.00 | 0.00 | 0.00 | 6 | 1011.6 |
| 20260504235401 | 66 | 232 | 5.0 | 13.0 | 0.00 | 0.00 | 0.00 | 10 | 1011.6 |
| 20260504234903 | 66 | 124 | 6.0 | 13.0 | 0.00 | 0.00 | 0.00 | 12 | 1011.6 |
| 20260504234402 | 67 | 259 | 5.0 | 13.0 | 0.00 | 0.00 | 0.00 | 9 | 1011.6 |
| 20260504233901 | 67 | 89 | 4.0 | 13.0 | 0.00 | 0.00 | 0.00 | 6 | 1011.6 |
| 20260504233402 | 68 | 211 | 3.0 | 13.0 | 0.00 | 0.00 | 0.00 | 7 | 1011.5 |
| 20260504232902 | 68 | 267 | 3.0 | 10.0 | 0.00 | 0.00 | 0.00 | 8 | 1011.6 |
| 20260504232404 | 68 | 218 | 4.0 | 11.0 | 0.00 | 0.00 | 0.00 | 7 | 1011.5 |
| 20260504231901 | 67 | 191 | 4.0 | 11.0 | 0.00 | 0.00 | 0.00 | 7 | 1011.5 |
| 20260504231402 | 67 | 201 | 4.0 | 14.0 | 0.00 | 0.00 | 0.00 | 7 | 1011.5 |
| 20260504230901 | 67 | 200 | 6.0 | 14.0 | 0.00 | 0.00 | 0.00 | 7 | 1011.6 |
| 20260504225905 | 67 | 200 | 5.0 | 20.0 | 0.00 | 0.00 | 0.00 | 7 | 1011.8 |
| 20260504224349 | 67 | 249 | 4.0 | 12.0 | 0.00 | 0.00 | 0.00 | 10 | 1011.8 |
| 20260504223841 | 67 | 119 | 3.0 | 10.0 | 0.00 | 0.00 | 0.00 | 12 | 1011.8 |
| 20260504223335 | 67 | 197 | 4.0 | 18.0 | 0.00 | 0.00 | 0.00 | 15 | 1011.7 |
| 20260504222829 | 67 | 311 | 5.0 | 18.0 | 0.00 | 0.00 | 0.00 | 11 | 1011.8 |
| 20260504221818 | 67 | 139 | 4.0 | 13.0 | 0.00 | 0.00 | 0.00 | 13 | 1011.8 |
| 20260504221314 | 66 | 283 | 7.0 | 20.0 | 0.00 | 0.00 | 0.00 | 13 | 1011.8 |
| 20260504220806 | 66 | 158 | 7.0 | 20.0 | 0.00 | 0.00 | 0.00 | 12 | 1012.1 |
| 20260504220259 | 67 | 227 | 6.0 | 16.0 | 0.00 | 0.00 | 0.00 | 12 | 1011.9 |
| 20260504215754 | 67 | 150 | 6.0 | 14.0 | 0.00 | 0.00 | 0.00 | 12 | 1011.9 |
| 20260504215247 | 67 | 190 | 5.0 | 14.0 | 0.00 | 0.00 | 0.00 | 11 | 1012.1 |
| 20260504214744 | 67 | 208 | 6.0 | 20.0 | 0.00 | 0.00 | 0.00 | 12 | 1012.1 |
| 20260504214235 | 66 | 146 | 8.0 | 23.0 | 0.00 | 0.00 | 0.00 | 13 | 1012.0 |
| 20260504213730 | 66 | 106 | 8.0 | 23.0 | 0.00 | 0.00 | 0.00 | 13 | 1012.1 |
| 20260504213223 | 67 | 98 | 7.0 | 14.0 | 0.00 | 0.00 | 0.00 | 14 | 1012.1 |
| 20260504212718 | 66 | 219 | 7.0 | 19.0 | 0.00 | 0.00 | 0.00 | 15 | 1012.3 |
| 20260504211211 | 67 | 197 | 3.0 | 10.0 | 0.00 | 0.00 | 0.00 | 20 | 1012.5 |
| 20260504210711 | 66 | 198 | 5.0 | 23.0 | 0.00 | 0.00 | 0.00 | 20 | 1012.5 |
| 20260504210216 | 65 | 94 | 7.0 | 23.0 | 0.00 | 0.00 | 0.00 | 21 | 1012.7 |
| 20260504205710 | 65 | 208 | 6.0 | 19.0 | 0.00 | 0.00 | 0.00 | 22 | 1012.7 |
| 20260504205207 | 66 | 151 | 6.0 | 19.0 | 0.00 | 0.00 | 0.00 | 23 | 1012.7 |
| 20260504204205 | 66 | 250 | 6.0 | 14.0 | 0.00 | 0.00 | 0.00 | 25 | 1012.5 |
| 20260504203705 | 66 | 173 | 5.0 | 14.0 | 0.00 | 0.00 | 0.00 | 25 | 1012.5 |
| 20260504203208 | 66 | 82 | 5.0 | 15.0 | 0.00 | 0.00 | 0.00 | 25 | 1012.6 |
| 20260504202708 | 65 | 145 | 7.0 | 18.0 | 0.00 | 0.00 | 0.00 | 26 | 1012.3 |
| 20260504202206 | 64 | 196 | 8.0 | 25.0 | 0.00 | 0.00 | 0.00 | 28 | 1012.6 |
| 20260504201706 | 64 | 155 | 6.0 | 25.0 | 0.00 | 0.00 | 0.00 | 29 | 1012.6 |
| 20260504201210 | 64 | 101 | 5.0 | 14.0 | 0.00 | 0.00 | 0.00 | 29 | 1012.6 |
| 20260504200205 | 64 | 82 | 7.0 | 18.0 | 0.00 | 0.00 | 0.00 | 30 | 1012.7 |
| 20260504195707 | 64 | 125 | 7.0 | 23.0 | 0.00 | 0.00 | 0.00 | 30 | 1012.7 |
| 20260504195200 | 64 | 217 | 8.0 | 23.0 | 0.00 | 0.00 | 0.00 | 31 | 1012.9 |
| 20260504194148 | 64 | 233 | 6.0 | 17.0 | 0.00 | 0.00 | 0.00 | 32 | 1012.8 |
| 20260504191127 | 62 | 150 | 9.0 | 27.0 | 0.00 | 0.00 | 0.00 | 35 | 1013.3 |
| 20260504190626 | 62 | 229 | 7.0 | 23.0 | 0.00 | 0.00 | 0.00 | 35 | 1013.5 |
| 20260504190127 | 62 | 183 | 6.0 | 22.0 | 0.00 | 0.00 | 0.00 | 36 | 1013.6 |
| 20260504185127 | 62 | 135 | 6.0 | 16.0 | 0.00 | 0.00 | 0.00 | 37 | 1013.0 |
| 20260504184627 | 62 | 116 | 6.0 | 18.0 | 0.00 | 0.00 | 0.00 | 36 | 1013.3 |
| 20260504184129 | 62 | 278 | 7.0 | 21.0 | 0.00 | 0.00 | 0.00 | 36 | 1013.4 |
| 20260504183130 | 62 | 248 | 5.0 | 13.0 | 0.00 | 0.00 | 0.00 | 38 | 1013.4 |
| 20260504182627 | 62 | 148 | 4.0 | 12.0 | 0.00 | 0.00 | 0.00 | 37 | 1013.2 |
| 20260504182126 | 62 | 293 | 6.0 | 22.0 | 0.00 | 0.00 | 0.00 | 39 | 1013.4 |
| 20260504181628 | 61 | 35 | 9.0 | 22.0 | 0.00 | 0.00 | 0.00 | 40 | 1013.5 |
| 20260504181128 | 61 | 283 | 8.0 | 21.0 | 0.00 | 0.00 | 0.00 | 40 | 1013.4 |
| 20260504180627 | 61 | 174 | 7.0 | 26.0 | 0.00 | 0.00 | 0.00 | 40 | 1013.6 |
| 20260504180127 | 60 | 189 | 7.0 | 26.0 | 0.00 | 0.00 | 0.00 | 41 | 1013.3 |
| 20260504175628 | 60 | 137 | 8.0 | 25.0 | 0.00 | 0.00 | 0.00 | 41 | 1013.5 |
| 20260504175125 | 60 | 201 | 10.0 | 21.0 | 0.00 | 0.00 | 0.00 | 42 | 1013.3 |
| 20260504174625 | 60 | 172 | 10.0 | 34.0 | 0.00 | 0.00 | 0.00 | 43 | 1013.5 |
| 20260504174124 | 60 | 122 | 8.0 | 34.0 | 0.00 | 0.00 | 0.00 | 43 | 1013.3 |
| 20260504173624 | 60 | 185 | 8.0 | 18.0 | 0.00 | 0.00 | 0.00 | 42 | 1013.2 |
| 20260504173126 | 60 | 162 | 7.0 | 18.0 | 0.00 | 0.00 | 0.00 | 42 | 1013.3 |
| 20260504172624 | 60 | 164 | 7.0 | 16.0 | 0.00 | 0.00 | 0.00 | 42 | 1013.3 |
| 20260504172124 | 60 | 220 | 8.0 | 18.0 | 0.00 | 0.00 | 0.00 | 43 | 1013.0 |
| 20260504171625 | 59 | 170 | 8.0 | 18.0 | 0.00 | 0.00 | 0.00 | 43 | 1013.3 |
| 20260504171124 | 60 | 150 | 7.0 | 23.0 | 0.00 | 0.00 | 0.00 | 43 | 1012.9 |
| 20260504170624 | 60 | 234 | 8.0 | 23.0 | 0.00 | 0.00 | 0.00 | 42 | 1012.9 |
| 20260504170125 | 60 | 170 | 7.0 | 22.0 | 0.00 | 0.00 | 0.00 | 42 | 1013.2 |
| 20260504160127 | 59 | 134 | 5.0 | 18.0 | 0.00 | 0.00 | 0.00 | 46 | 1013.0 |
| 20260504150616 | 58 | 79 | 5.0 | 17.0 | 0.00 | 0.00 | 0.00 | 44 | 1013.2 |
| 20260504150109 | 58 | 153 | 5.0 | 17.0 | 0.00 | 0.00 | 0.00 | 44 | 1013.2 |
| 20260504141104 | 58 | 184 | 4.0 | 12.0 | 0.00 | 0.00 | 0.00 | 42 | 1012.7 |
| 20260504140606 | 57 | 175 | 4.0 | 15.0 | 0.00 | 0.00 | 0.00 | 41 | 1012.8 |
| 20260504140105 | 57 | 139 | 3.0 | 15.0 | 0.00 | 0.00 | 0.00 | 41 | 1012.6 |
| 20260504081935 | 63 | 183 | 2.0 | 9.0 | 0.00 | 0.00 | 0.00 | 29 | 1011.6 |
| 20260504081429 | 63 | 197 | 2.0 | 7.0 | 0.00 | 0.00 | 0.00 | 29 | 1011.6 |
| 20260504080419 | 63 | 195 | 2.0 | 8.0 | 0.00 | 0.00 | 0.00 | 28 | 1012.1 |
| 20260504070406 | 65 | 193 | 2.0 | 7.0 | 0.00 | 0.00 | 0.00 | 24 | 1011.9 |
| 20260504050357 | 69 | 207 | 7.0 | 14.0 | 0.00 | 0.00 | 0.00 | 18 | 1011.9 |
| 20260504045855 | 69 | 188 | 7.0 | 14.0 | 0.00 | 0.00 | 0.00 | 18 | 1011.9 |
| 20260504045414 | 69 | 160 | 6.0 | 14.0 | 0.00 | 0.00 | 0.00 | 18 | 1012.0 |
| 20260504044859 | 69 | 277 | 6.0 | 11.0 | 0.00 | 0.00 | 0.00 | 18 | 1011.8 |
| 20260504044359 | 69 | 127 | 5.0 | 14.0 | 0.00 | 0.00 | 0.00 | 18 | 1011.9 |
| 20260504043859 | 69 | 226 | 5.0 | 14.0 | 0.00 | 0.00 | 0.00 | 18 | 1012.0 |
| 20260504043348 | 69 | 143 | 5.0 | 13.0 | 0.00 | 0.00 | 0.00 | 18 | 1011.9 |
| 20260504042847 | 70 | 162 | 6.0 | 20.0 | 0.00 | 0.00 | 0.00 | 18 | 1012.1 |
| 20260504042346 | 70 | 166 | 6.0 | 20.0 | 0.00 | 0.00 | 0.00 | 18 | 1012.0 |
| 20260504041336 | 70 | 229 | 4.0 | 12.0 | 0.00 | 0.00 | 0.00 | 18 | 1011.8 |
| 20260504040833 | 70 | 177 | 4.0 | 12.0 | 0.00 | 0.00 | 0.00 | 18 | 1011.7 |
| 20260504035837 | 70 | 177 | 5.0 | 12.0 | 0.00 | 0.00 | 0.00 | 18 | 1011.6 |
| 20260504035337 | 70 | 129 | 5.0 | 12.0 | 0.00 | 0.00 | 0.00 | 18 | 1011.6 |
| 20260504034831 | 70 | 292 | 5.0 | 15.0 | 0.00 | 0.00 | 0.00 | 17 | 1011.5 |
| 20260504033829 | 71 | 160 | 3.0 | 11.0 | 0.00 | 0.00 | 0.00 | 17 | 1011.3 |
| 20260504033327 | 71 | 197 | 4.0 | 8.0 | 0.00 | 0.00 | 0.00 | 17 | 1011.1 |
| 20260504032332 | 71 | 218 | 4.0 | 10.0 | 0.00 | 0.00 | 0.00 | 17 | 1011.1 |
| 20260504031829 | 71 | 193 | 5.0 | 13.0 | 0.00 | 0.00 | 0.00 | 17 | 1011.1 |
| 20260504031328 | 71 | 256 | 5.0 | 17.0 | 0.00 | 0.00 | 0.00 | 17 | 1011.1 |
| 20260504030828 | 71 | 194 | 6.0 | 17.0 | 0.00 | 0.00 | 0.00 | 16 | 1011.0 |